Location: Northcutt
(34.7304°N, 84.4305°W)
Time: 04:24:36
(UTC+00:00)

Vanguard 2 - Pass Details

Date: 04 October 2022
Orbit: 553 x 2933 km, 32.9° (Epoch: 04 December)

Event Time Altitude Azimuth Distance (km) Brightness Sun altitude
Rises 19:13:04 0° 258° (WSW) 4,717 12.1 43.4°
Reaches altitude 10° 19:15:42 10° 257° (WSW) 3,998 11.9 43.0°
Maximum altitude 19:27:14 82° 172° (S) 2,390 10.9 41.5°
Drops below altitude 10° 19:44:35 10° 88° (E) 5,727 11.7 39.0°
Sets 19:49:12 0° 88° (E) 6,786 12.0 38.3°
